Weather in Tenby

United Kingdom     51°40′43″N   4°42′44″W
temp.,
°C
wind,
m/s
gust,
m/s
humid.,
%
clouds,
%
prec.,
mm/h
press.,
hPa
HPBL,
m
12 may, wed
wed1201:00+8sse2389100 0.2 1006121
04:00+8sw369099 0.3 1006277
07:00+8sw479217 0.6 1007385
10:00+11ssw55735 0.1 1007995
13:00+11ssw557168 0.1 10081192
16:00+11ssw3370100 0.1 1007898
19:00+10sw2276100 0.2 1008458
22:00+8nw2385100 0.0 100855
13 may, thu
thu1301:00+7n3487100 0.0 100870
04:00+7n3585100 0.1 1007159
07:00+7n4895100 2.4 1007421
10:00+8nnw71195100 7.8 1007455
13:00+8n71095100 12.7 1008464
16:00+8nnw71195100 3.3 1008517
19:00+9nnw61195100 7.2 1008429
22:00+8nnw51094100 3.4 1009421
14 may, fri
fri1401:00+8n499399 5.1 1009330
04:00+8nnw369677 0.4 1009189
07:00+8n249595 0.4 1010132
10:00+12sse018275 0.3 1010562
13:00+12s338629 1.7 1010458
16:00+12ssw558188 0.9 1009737
19:00+11ssw3486100 1.0 1008528
22:00+8ssw2392100 0.1 100796
15 may, sat
sat1501:00+8sse3689100 0.1 1005202
04:00+8sse71194100 1.0 1004784
07:00+8se101494100 2.3 1001763
10:00+11wsw8118814 0.4 1002825
13:00+12wsw810774 0.6 1003988
16:00+12sw79786 0.2 1003938
19:00+11wsw69860 0.3 1003648
22:00+9sw61294100 0.2 1004459
16 may, sun
sun1601:00+10sw6129299 1.2 1003450
04:00+8wsw35940 1.6 1002150
07:00+9sw489437 1.9 1002406
10:00+11sw788196 0.3 1002834
13:00+11sw81084100 0.9 1002967
16:00+11sw81192100 1.4 1001920
19:00+10sw81293100 2.8 1000763
22:00+9sw7129464 0.7 1000585